User: anonymous   Login
Location: Campillo
(40.8621°N, 4.2488°W)
Time: 00:40:01
(UTC+00:00)
Language:

BREEZE-M DEB (TANK) - Orbit

View from above orbital plane
View from above orbital plane
View from above satellite
View from above satellite

Ground track
Ground track

The orbit data is extracted from the following two-line orbital elements,

1 36794U 10034C   21213.16946364  .00003216  00000-0  45930-3 0  9991
2 36794  49.5481  30.5823 5535254 142.7927 272.9509  4.77085677189298
Epoch (UTC): 01 August 2021 04:04:01
Eccentricity: 0.5535254
inclination: 49.5481°
perigee height: 276 km
apogee height: 16777 km
right ascension of ascending node: 30.5823°
argument of perigee: 142.7927°
revolutions per day: 4.77085677
mean anomaly at epoch: 272.9509°
orbit number at epoch: 18929

The dashed part of the orbit path shows where the satellite is in the earth's shadow,  

DLR